WNISAT-1 (39423 NORAD) Tracking and Keplerian Element Data

This shows tracking and keplerian element data for the satellite.

Feedback or suggestion? Click here.




ElementValue
Catalog39423
NameWNISAT-1
Epoch Orbit59409
Epoch Day34.49359372
Epoch Year2025
RAAN216.2521
Inclination97.6674
Eccentricity0.0166922
Argument of Perigee2.714
Mean Anonmoly357.4926
Mean Motion14.56545849
Decay Rate1.633E-05
L11 39423U 13066H 25034.49359372 .00001633 00000+0 31249-3 0 9997
L22 39423 97.6674 216.2521 0166922 2.7140 357.4926 14.56545849594095



Live tracking and technical data element details for WNISAT-1 (NORAD 39423). WNISAT-1 can be tracked NOW for your location showing map with azimuth and elevation plus other details from your city location.







IsCatalogInMostPopularTable: catalog: 39423, numindb: 281
Update: records affected: 1



GetName: 39423 WNISAT-1

Hit Count: updated at: Fri, 16 May 2025 11:56:56 GMT